Regional Weather Roundup
Issued by NWS

Home | Current Version | Previous Version | Text Only | Print | Product List | Glossary Off
Versions: 1 2 3 4 5 6 7 8 9 10 11 12 13 14 15 16 17 18 19 20 21 22 23 24 25 26 27 28 29 30 31 32 33 34 35 36 37 38 39 40 41 42 43 44 45 46 47 48 49 50

000
ASUS43 KLMK 250202
RWRKY
KENTUCKY REGIONAL WEATHER ROUNDUP
NATIONAL WEATHER SERVICE LOUISVILLE KY
1000 PM EDT WED AUG 24 2016

NOTE "FAIR" INDICATES FEW OR NO CLOUDS BELOW 12,000 FEET
WITH NO SIGNIFICANT WEATHER AND/OR OBSTRUCTIONS TO VISIBILITY.

KYZ001>023-026-027-061>063-070>075-250300-
WESTERN AND SOUTH CENTRAL KENTUCKY

CITY           SKY/WX    TMP DP  RH WIND       PRES   REMARKS
PADUCAH        CLEAR     82  73  74 S3        30.08R
HENDERSON      CLEAR     79  72  78 CALM      30.06R
OWENSBORO      CLEAR     81  77  88 S6        30.09R
HOPKINSVILLE   CLEAR     83  75  75 SE5       30.11R HX  91
BOWLING GREEN  CLEAR     83  73  72 S8        30.12R
GLASGOW        PTCLDY    78  73  84 SW3       30.14R
$$

KYZ024-025-028>034-038-045-046-053-250300-
NORTH CENTRAL KENTUCKY

CITY           SKY/WX    TMP DP  RH WIND       PRES   REMARKS
LOUISVILLE/SDF PTCLDY    83  73  72 S10       30.09R
LOUISVILLE/LOU CLEAR     83  73  72 S6        30.09S
FORT KNOX      CLEAR     79  74  85 S7        30.09S
$$

KYZ035>037-039>044-047>052-055>060-089>105-250300-
NORTHEAST KENTUCKY

CITY           SKY/WX    TMP DP  RH WIND       PRES   REMARKS
LEXINGTON      CLEAR     79  71  76 S7        30.13R
COVINGTON      CLOUDY    81  73  76 SW8       30.08R
FRANKFORT      PTCLDY    80  70  71 S5        30.11R
$$

KYZ054-064>069-076>088-106>120-250300-
SOUTHEAST KENTUCKY

CITY           SKY/WX    TMP DP  RH WIND       PRES   REMARKS
JACKSON        CLOUDY    77  71  82 CALM      30.17F
LONDON         CLEAR     76  71  85 CALM      30.18S
SOMERSET       CLEAR     73  72  94 CALM      30.17S
MIDDLESBORO    CLEAR     75  72  90 CALM      30.21R
MONTICELLO     CLEAR    N/A N/A N/A NE7       30.19
$$





USA.gov is the U.S. government's official web portal to all federal, state and local government web resources and services.